| time (UTC) | temp F | wind direction | speed MPH | gust MPH | rain 1hr in | rain 24hr in | rain mn in | humidity % | barometer mb |
| 20260506051029 | 76 | 236 | 2.0 | 5.0 | 0.00 | 0.00 | 0.00 | 89 | 1009.4 |
| 20260506050527 | 77 | 234 | 3.0 | 6.0 | 0.00 | 0.00 | 0.00 | 88 | 1009.1 |
| 20260506045017 | 77 | 230 | 2.0 | 3.0 | 0.00 | 0.00 | 0.00 | 88 | 1009.4 |
| 20260506044516 | 77 | 326 | 1.0 | 3.0 | 0.00 | 0.00 | 0.00 | 88 | 1009.2 |
| 20260506044012 | 77 | 133 | 2.0 | 4.0 | 0.00 | 0.00 | 0.00 | 88 | 1009.2 |
| 20260506043509 | 77 | 110 | 2.0 | 4.0 | 0.00 | 0.00 | 0.00 | 87 | 1009.4 |
| 20260506043007 | 77 | 100 | 1.0 | 2.0 | 0.00 | 0.00 | 0.00 | 87 | 1009.1 |
| 20260506042501 | 77 | 203 | 3.0 | 5.0 | 0.00 | 0.00 | 0.00 | 87 | 1009.3 |
| 20260506041958 | 77 | 246 | 1.0 | 6.0 | 0.00 | 0.00 | 0.00 | 87 | 1009.2 |
| 20260506041456 | 77 | 133 | 3.0 | 3.0 | 0.00 | 0.00 | 0.00 | 87 | 1009.0 |
| 20260506040953 | 77 | 272 | 0.0 | 5.0 | 0.00 | 0.00 | 0.00 | 87 | 1009.1 |
| 20260506040451 | 77 | 206 | 0.0 | 2.0 | 0.00 | 0.00 | 0.00 | 87 | 1009.0 |
| 20260506035946 | 77 | 251 | 1.0 | 6.0 | 0.00 | 0.00 | 0.00 | 87 | 1009.3 |
| 20260506035443 | 77 | 346 | 2.0 | 5.0 | 0.00 | 0.00 | 0.00 | 86 | 1009.1 |
| 20260506034940 | 77 | 244 | 2.0 | 5.0 | 0.00 | 0.00 | 0.00 | 87 | 1009.1 |
| 20260506034438 | 77 | 217 | 1.0 | 3.0 | 0.00 | 0.00 | 0.00 | 86 | 1008.8 |
| 20260506033935 | 77 | 135 | 3.0 | 5.0 | 0.00 | 0.00 | 0.00 | 86 | 1008.7 |
| 20260506033432 | 78 | 255 | 0.0 | 3.0 | 0.00 | 0.00 | 0.00 | 86 | 1008.6 |
| 20260506032928 | 78 | 122 | 2.0 | 5.0 | 0.00 | 0.00 | 0.00 | 86 | 1008.4 |
| 20260506032426 | 78 | 237 | 1.0 | 4.0 | 0.00 | 0.00 | 0.00 | 85 | 1008.4 |
| 20260506031922 | 78 | 328 | 0.0 | 5.0 | 0.00 | 0.00 | 0.00 | 85 | 1008.3 |
| 20260506031420 | 78 | 189 | 3.0 | 6.0 | 0.00 | 0.00 | 0.00 | 85 | 1008.2 |
| 20260506030917 | 78 | 146 | 3.0 | 6.0 | 0.00 | 0.00 | 0.00 | 84 | 1008.0 |
| 20260506030415 | 79 | 106 | 2.0 | 4.0 | 0.00 | 0.00 | 0.00 | 84 | 1008.0 |
| 20260506025912 | 79 | 255 | 2.0 | 4.0 | 0.00 | 0.00 | 0.00 | 83 | 1008.1 |
| 20260506025409 | 79 | 307 | 2.0 | 10.0 | 0.00 | 0.00 | 0.00 | 83 | 1008.0 |
| 20260506024905 | 79 | 211 | 1.0 | 6.0 | 0.00 | 0.00 | 0.00 | 83 | 1007.9 |
| 20260506024402 | 79 | 76 | 1.0 | 5.0 | 0.00 | 0.00 | 0.00 | 83 | 1007.6 |
| 20260506023858 | 79 | 240 | 0.0 | 7.0 | 0.00 | 0.00 | 0.00 | 83 | 1008.0 |
| 20260506023355 | 80 | 85 | 0.0 | 5.0 | 0.00 | 0.00 | 0.00 | 82 | 1007.8 |
| 20260506022852 | 80 | 166 | 3.0 | 4.0 | 0.00 | 0.00 | 0.00 | 82 | 1007.7 |
| 20260506022349 | 80 | 215 | 3.0 | 3.0 | 0.00 | 0.00 | 0.00 | 83 | 1007.9 |
| 20260506021847 | 80 | 145 | 1.0 | 5.0 | 0.00 | 0.00 | 0.00 | 83 | 1007.7 |
| 20260506021344 | 79 | 145 | 0.0 | 3.0 | 0.00 | 0.00 | 0.00 | 83 | 1007.8 |
| 20260506020841 | 79 | 158 | 3.0 | 3.0 | 0.00 | 0.00 | 0.00 | 83 | 1007.4 |
| 20260506020339 | 80 | 151 | 2.0 | 4.0 | 0.00 | 0.00 | 0.00 | 83 | 1007.4 |
| 20260506015836 | 80 | 88 | 2.0 | 4.0 | 0.00 | 0.00 | 0.00 | 82 | 1007.4 |
| 20260506015333 | 80 | 120 | 1.0 | 4.0 | 0.00 | 0.00 | 0.00 | 81 | 1007.2 |
| 20260506014830 | 80 | 115 | 1.0 | 3.0 | 0.00 | 0.00 | 0.00 | 80 | 1007.3 |
| 20260506014327 | 81 | 182 | 0.0 | 5.0 | 0.00 | 0.00 | 0.00 | 79 | 1007.0 |
| 20260506013823 | 81 | 107 | 4.0 | 4.0 | 0.00 | 0.00 | 0.00 | 78 | 1007.1 |
| 20260506013321 | 82 | 119 | 4.0 | 4.0 | 0.00 | 0.00 | 0.00 | 77 | 1007.1 |
| 20260506012817 | 82 | 118 | 1.0 | 2.0 | 0.00 | 0.00 | 0.00 | 76 | 1007.2 |
| 20260506012314 | 82 | 78 | 1.0 | 3.0 | 0.00 | 0.00 | 0.00 | 76 | 1006.9 |
| 20260506011812 | 82 | 128 | 1.0 | 1.0 | 0.00 | 0.00 | 0.00 | 76 | 1006.7 |
| 20260506011308 | 82 | 227 | 0.0 | 2.0 | 0.00 | 0.00 | 0.00 | 76 | 1007.0 |
| 20260506010806 | 82 | 183 | 0.0 | 1.0 | 0.00 | 0.00 | 0.00 | 75 | 1006.9 |
| 20260506010304 | 83 | 180 | 0.0 | 3.0 | 0.00 | 0.00 | 0.00 | 75 | 1006.9 |
| 20260506005800 | 83 | 258 | 0.0 | 1.0 | 0.00 | 0.00 | 0.00 | 75 | 1006.8 |
| 20260506005257 | 83 | 242 | 0.0 | 1.0 | 0.00 | 0.00 | 0.00 | 74 | 1006.8 |
| 20260506004753 | 83 | 156 | 2.0 | 2.0 | 0.00 | 0.00 | 0.00 | 74 | 1006.7 |
| 20260506004251 | 83 | 205 | 1.0 | 3.0 | 0.00 | 0.00 | 0.00 | 73 | 1006.6 |
| 20260506003747 | 84 | 121 | 2.0 | 4.0 | 0.00 | 0.00 | 0.00 | 72 | 1006.6 |
| 20260506003243 | 84 | 234 | 1.0 | 2.0 | 0.00 | 0.00 | 0.00 | 72 | 1006.8 |
| 20260506002739 | 84 | 121 | 1.0 | 3.0 | 0.00 | 0.00 | 0.00 | 72 | 1006.6 |
| 20260506002236 | 84 | 276 | 2.0 | 2.0 | 0.00 | 0.00 | 0.00 | 71 | 1006.8 |
| 20260506001731 | 84 | 114 | 2.0 | 3.0 | 0.00 | 0.00 | 0.00 | 72 | 1006.7 |
| 20260506001229 | 84 | 141 | 0.0 | 3.0 | 0.00 | 0.00 | 0.00 | 72 | 1006.6 |
| 20260506000726 | 84 | 113 | 0.0 | 2.0 | 0.00 | 0.00 | 0.00 | 72 | 1006.6 |
| 20260506000226 | 84 | 280 | 1.0 | 2.0 | 0.00 | 0.00 | 0.00 | 72 | 1006.5 |
| 20260505235720 | 84 | 176 | 0.0 | 3.0 | 0.00 | 0.00 | 0.00 | 71 | 1006.3 |
| 20260505235218 | 85 | 197 | 1.0 | 3.0 | 0.00 | 0.00 | 0.00 | 70 | 1006.3 |
| 20260505234715 | 85 | 159 | 1.0 | 3.0 | 0.00 | 0.00 | 0.00 | 70 | 1006.3 |
| 20260505234212 | 85 | 260 | 0.0 | 4.0 | 0.00 | 0.00 | 0.00 | 70 | 1006.3 |
| 20260505233708 | 85 | 288 | 0.0 | 4.0 | 0.00 | 0.00 | 0.00 | 70 | 1006.1 |
| 20260505233207 | 85 | 135 | 6.0 | 6.0 | 0.00 | 0.00 | 0.00 | 69 | 1006.2 |
| 20260505232704 | 86 | 234 | 3.0 | 4.0 | 0.00 | 0.00 | 0.00 | 68 | 1006.1 |
| 20260505232201 | 86 | 189 | 2.0 | 3.0 | 0.00 | 0.00 | 0.00 | 69 | 1006.2 |
| 20260505231658 | 86 | 249 | 1.0 | 4.0 | 0.00 | 0.00 | 0.00 | 68 | 1006.1 |
| 20260505231157 | 86 | 213 | 3.0 | 5.0 | 0.00 | 0.00 | 0.00 | 67 | 1006.0 |
| 20260505230654 | 86 | 137 | 1.0 | 5.0 | 0.00 | 0.00 | 0.00 | 67 | 1006.0 |
| 20260505230151 | 87 | 246 | 4.0 | 6.0 | 0.00 | 0.00 | 0.00 | 66 | 1006.1 |
| 20260505225647 | 87 | 290 | 1.0 | 5.0 | 0.00 | 0.00 | 0.00 | 67 | 1006.0 |
| 20260505225143 | 86 | 154 | 3.0 | 4.0 | 0.00 | 0.00 | 0.00 | 67 | 1005.9 |
| 20260505224639 | 87 | 168 | 4.0 | 8.0 | 0.00 | 0.00 | 0.00 | 67 | 1006.1 |
| 20260505224138 | 87 | 291 | 2.0 | 4.0 | 0.00 | 0.00 | 0.00 | 65 | 1006.2 |
| 20260505223635 | 87 | 221 | 2.0 | 4.0 | 0.00 | 0.00 | 0.00 | 65 | 1006.5 |
| 20260505223131 | 86 | 186 | 3.0 | 5.0 | 0.00 | 0.00 | 0.00 | 67 | 1006.4 |
| 20260505222627 | 86 | 210 | 3.0 | 4.0 | 0.00 | 0.00 | 0.00 | 68 | 1006.3 |
| 20260505222123 | 86 | 286 | 1.0 | 3.0 | 0.00 | 0.00 | 0.00 | 68 | 1006.7 |
| 20260505221620 | 87 | 274 | 1.0 | 4.0 | 0.00 | 0.00 | 0.00 | 66 | 1006.5 |
| 20260505221117 | 87 | 280 | 1.0 | 3.0 | 0.00 | 0.00 | 0.00 | 67 | 1006.4 |
| 20260505220614 | 87 | 263 | 2.0 | 3.0 | 0.00 | 0.00 | 0.00 | 67 | 1006.3 |
| 20260505220112 | 86 | 311 | 3.0 | 5.0 | 0.00 | 0.00 | 0.00 | 67 | 1006.4 |
| 20260505215609 | 86 | 181 | 3.0 | 4.0 | 0.00 | 0.00 | 0.00 | 65 | 1006.4 |
| 20260505215108 | 87 | 278 | 2.0 | 5.0 | 0.00 | 0.00 | 0.00 | 66 | 1006.4 |
| 20260505214605 | 87 | 271 | 3.0 | 7.0 | 0.00 | 0.00 | 0.00 | 65 | 1006.9 |
| 20260505214102 | 88 | 254 | 2.0 | 5.0 | 0.00 | 0.00 | 0.00 | 64 | 1006.6 |
| 20260505213600 | 88 | 278 | 1.0 | 4.0 | 0.00 | 0.00 | 0.00 | 65 | 1006.8 |
| 20260505213056 | 86 | 25 | 1.0 | 5.0 | 0.00 | 0.00 | 0.00 | 66 | 1006.9 |
| 20260505212552 | 86 | 242 | 1.0 | 7.0 | 0.00 | 0.00 | 0.00 | 67 | 1007.2 |
| 20260505212050 | 86 | 277 | 3.0 | 4.0 | 0.00 | 0.00 | 0.00 | 67 | 1007.2 |
| 20260505211546 | 86 | 207 | 0.0 | 5.0 | 0.00 | 0.00 | 0.00 | 67 | 1007.4 |
| 20260505211043 | 86 | 52 | 2.0 | 5.0 | 0.00 | 0.00 | 0.00 | 68 | 1007.2 |
| 20260505210540 | 86 | 287 | 3.0 | 4.0 | 0.00 | 0.00 | 0.00 | 67 | 1007.2 |
| 20260505210037 | 86 | 197 | 1.0 | 4.0 | 0.00 | 0.00 | 0.00 | 67 | 1007.1 |
| 20260505205535 | 85 | 219 | 4.0 | 8.0 | 0.00 | 0.00 | 0.00 | 68 | 1007.3 |
| 20260505205032 | 85 | 293 | 2.0 | 4.0 | 0.00 | 0.00 | 0.00 | 69 | 1007.5 |
| 20260505204530 | 86 | 295 | 3.0 | 3.0 | 0.00 | 0.00 | 0.00 | 68 | 1007.5 |
| 20260505204027 | 86 | 254 | 3.0 | 5.0 | 0.00 | 0.00 | 0.00 | 66 | 1007.5 |
| 20260505203523 | 86 | 290 | 3.0 | 4.0 | 0.00 | 0.00 | 0.00 | 66 | 1007.7 |
| 20260505203020 | 87 | 262 | 3.0 | 7.0 | 0.00 | 0.00 | 0.00 | 65 | 1007.8 |
| 20260505202516 | 87 | 278 | 2.0 | 5.0 | 0.00 | 0.00 | 0.00 | 66 | 1007.6 |
| 20260505202012 | 87 | 332 | 4.0 | 8.0 | 0.00 | 0.00 | 0.00 | 66 | 1007.6 |
| 20260505201510 | 87 | 318 | 2.0 | 5.0 | 0.00 | 0.00 | 0.00 | 64 | 1007.8 |
| 20260505201007 | 86 | 322 | 1.0 | 6.0 | 0.00 | 0.00 | 0.00 | 66 | 1007.8 |
| 20260505200505 | 85 | 342 | 1.0 | 6.0 | 0.00 | 0.00 | 0.00 | 68 | 1007.9 |
| 20260505200001 | 85 | 229 | 2.0 | 4.0 | 0.00 | 0.00 | 0.00 | 69 | 1008.1 |
| 20260505195458 | 84 | 224 | 2.0 | 6.0 | 0.00 | 0.00 | 0.00 | 70 | 1008.2 |
| 20260505194955 | 84 | 285 | 3.0 | 4.0 | 0.00 | 0.00 | 0.00 | 71 | 1008.2 |
| 20260505194453 | 84 | 348 | 3.0 | 7.0 | 0.00 | 0.00 | 0.00 | 71 | 1008.1 |
| 20260505193952 | 85 | 188 | 3.0 | 5.0 | 0.00 | 0.00 | 0.00 | 69 | 1008.2 |
| 20260505193450 | 85 | 159 | 4.0 | 4.0 | 0.00 | 0.00 | 0.00 | 70 | 1008.3 |
| 20260505192947 | 84 | 266 | 2.0 | 5.0 | 0.00 | 0.00 | 0.00 | 73 | 1008.5 |
| 20260505192446 | 83 | 322 | 2.0 | 3.0 | 0.00 | 0.00 | 0.00 | 72 | 1008.5 |
| 20260505191943 | 83 | 294 | 5.0 | 5.0 | 0.00 | 0.00 | 0.00 | 72 | 1008.6 |
| 20260505191442 | 83 | 306 | 2.0 | 4.0 | 0.00 | 0.00 | 0.00 | 73 | 1008.6 |
| 20260505190938 | 82 | 214 | 2.0 | 4.0 | 0.00 | 0.00 | 0.00 | 73 | 1008.7 |
| 20260505190433 | 83 | 250 | 0.0 | 6.0 | 0.00 | 0.00 | 0.00 | 73 | 1009.0 |
| 20260505185929 | 82 | 310 | 2.0 | 4.0 | 0.00 | 0.00 | 0.00 | 73 | 1008.7 |
| 20260505185427 | 82 | 193 | 0.0 | 3.0 | 0.00 | 0.00 | 0.00 | 73 | 1008.9 |
| 20260505184923 | 82 | 344 | 2.0 | 4.0 | 0.00 | 0.00 | 0.00 | 73 | 1008.8 |
| 20260505184420 | 82 | 266 | 3.0 | 6.0 | 0.00 | 0.00 | 0.00 | 73 | 1009.0 |
| 20260505183916 | 83 | 220 | 2.0 | 5.0 | 0.00 | 0.00 | 0.00 | 73 | 1008.9 |
| 20260505183413 | 83 | 196 | 2.0 | 6.0 | 0.00 | 0.00 | 0.00 | 71 | 1009.1 |
| 20260505182910 | 83 | 277 | 5.0 | 5.0 | 0.00 | 0.00 | 0.00 | 72 | 1009.1 |
| 20260505182407 | 83 | 41 | 2.0 | 7.0 | 0.00 | 0.00 | 0.00 | 72 | 1008.9 |
| 20260505181903 | 82 | 293 | 2.0 | 6.0 | 0.00 | 0.00 | 0.00 | 75 | 1008.9 |
| 20260505181401 | 82 | 230 | 2.0 | 5.0 | 0.00 | 0.00 | 0.00 | 74 | 1009.1 |
| 20260505180857 | 81 | 250 | 2.0 | 4.0 | 0.00 | 0.00 | 0.00 | 75 | 1009.3 |
| 20260505180354 | 81 | 210 | 1.0 | 4.0 | 0.00 | 0.00 | 0.00 | 75 | 1009.4 |
| 20260505175850 | 81 | 326 | 2.0 | 3.0 | 0.00 | 0.00 | 0.00 | 76 | 1009.5 |
| 20260505175347 | 81 | 239 | 2.0 | 6.0 | 0.00 | 0.00 | 0.00 | 76 | 1009.3 |
| 20260505174843 | 80 | 320 | 3.0 | 6.0 | 0.00 | 0.00 | 0.00 | 77 | 1009.2 |
| 20260505174341 | 80 | 288 | 1.0 | 4.0 | 0.00 | 0.00 | 0.00 | 78 | 1009.3 |
| 20260505173836 | 79 | 196 | 2.0 | 4.0 | 0.00 | 0.00 | 0.00 | 79 | 1009.2 |
| 20260505173333 | 79 | 343 | 3.0 | 5.0 | 0.00 | 0.00 | 0.00 | 79 | 1009.4 |
| 20260505172830 | 79 | 261 | 2.0 | 7.0 | 0.00 | 0.00 | 0.00 | 78 | 1009.6 |
| 20260505172328 | 79 | 273 | 2.0 | 5.0 | 0.00 | 0.00 | 0.00 | 79 | 1009.5 |
| 20260505171827 | 79 | 136 | 1.0 | 4.0 | 0.00 | 0.00 | 0.00 | 79 | 1009.7 |
| 20260505171325 | 78 | 219 | 3.0 | 5.0 | 0.00 | 0.00 | 0.00 | 81 | 1009.5 |
| 20260505170821 | 78 | 228 | 3.0 | 5.0 | 0.00 | 0.00 | 0.00 | 82 | 1009.7 |
| 20260505170318 | 77 | 229 | 3.0 | 6.0 | 0.00 | 0.00 | 0.00 | 83 | 1009.7 |
| 20260505165814 | 77 | 248 | 3.0 | 6.0 | 0.00 | 0.00 | 0.00 | 83 | 1009.7 |
| 20260505165309 | 77 | 336 | 3.0 | 5.0 | 0.00 | 0.00 | 0.00 | 84 | 1009.6 |
| 20260505164805 | 76 | 231 | 4.0 | 5.0 | 0.00 | 0.00 | 0.00 | 84 | 1009.6 |
| 20260505164303 | 76 | 247 | 2.0 | 5.0 | 0.00 | 0.00 | 0.00 | 85 | 1009.6 |
| 20260505163801 | 75 | 240 | 3.0 | 3.0 | 0.00 | 0.00 | 0.00 | 86 | 1009.8 |
| 20260505163259 | 75 | 325 | 3.0 | 3.0 | 0.00 | 0.00 | 0.00 | 86 | 1009.7 |
| 20260505162756 | 75 | 70 | 1.0 | 3.0 | 0.00 | 0.00 | 0.00 | 86 | 1009.5 |
| 20260505162253 | 75 | 257 | 0.0 | 4.0 | 0.00 | 0.00 | 0.00 | 87 | 1009.5 |
| 20260505161750 | 74 | 302 | 2.0 | 4.0 | 0.00 | 0.00 | 0.00 | 88 | 1009.4 |
| 20260505161247 | 74 | 50 | 1.0 | 3.0 | 0.00 | 0.00 | 0.00 | 88 | 1009.4 |
| 20260505160744 | 74 | 303 | 1.0 | 2.0 | 0.00 | 0.00 | 0.00 | 88 | 1009.7 |
| 20260505160242 | 74 | 359 | 2.0 | 4.0 | 0.00 | 0.00 | 0.00 | 88 | 1009.7 |
| 20260505153221 | 73 | 344 | 0.0 | 3.0 | 0.00 | 0.00 | 0.00 | 91 | 1009.3 |
| 20260505152718 | 73 | 23 | 1.0 | 3.0 | 0.00 | 0.00 | 0.00 | 91 | 1009.4 |
| 20260505152214 | 72 | 317 | 1.0 | 5.0 | 0.00 | 0.00 | 0.00 | 92 | 1009.5 |
| 20260505151709 | 72 | 225 | 2.0 | 3.0 | 0.00 | 0.00 | 0.00 | 93 | 1009.5 |
| 20260505151207 | 71 | 339 | 1.0 | 3.0 | 0.00 | 0.00 | 0.00 | 94 | 1009.8 |
| 20260505150703 | 71 | 82 | 1.0 | 4.0 | 0.00 | 0.00 | 0.00 | 94 | 1009.5 |
| 20260505150200 | 71 | 257 | 2.0 | 5.0 | 0.00 | 0.00 | 0.00 | 95 | 1009.6 |
| 20260505140633 | 70 | 251 | 2.0 | 4.0 | 0.00 | 0.00 | 0.00 | 95 | 1009.5 |
| 20260505140131 | 70 | 288 | 3.0 | 4.0 | 0.00 | 0.00 | 0.00 | 94 | 1009.3 |
| 20260505124543 | 71 | 268 | 2.0 | 4.0 | 0.00 | 0.00 | 0.00 | 93 | 1008.7 |
| 20260505124040 | 70 | 152 | 4.0 | 7.0 | 0.00 | 0.00 | 0.00 | 93 | 1008.6 |
| 20260505123536 | 70 | 92 | 2.0 | 6.0 | 0.00 | 0.00 | 0.00 | 93 | 1008.6 |
| 20260505123032 | 70 | 296 | 4.0 | 4.0 | 0.00 | 0.00 | 0.00 | 93 | 1008.3 |
| 20260505122530 | 70 | 138 | 4.0 | 5.0 | 0.00 | 0.00 | 0.00 | 93 | 1008.5 |
| 20260505122026 | 70 | 346 | 2.0 | 4.0 | 0.00 | 0.00 | 0.00 | 93 | 1008.4 |
| 20260505121523 | 70 | 266 | 3.0 | 7.0 | 0.00 | 0.00 | 0.00 | 93 | 1008.4 |
| 20260505121020 | 70 | 262 | 3.0 | 5.0 | 0.00 | 0.00 | 0.00 | 93 | 1008.2 |
| 20260505120516 | 70 | 322 | 2.0 | 4.0 | 0.00 | 0.00 | 0.00 | 93 | 1008.3 |
| 20260505120012 | 70 | 152 | 2.0 | 5.0 | 0.00 | 0.00 | 0.00 | 93 | 1008.1 |
| 20260505115507 | 70 | 175 | 0.0 | 5.0 | 0.00 | 0.00 | 0.00 | 93 | 1008.0 |
| 20260505115005 | 70 | 91 | 1.0 | 3.0 | 0.00 | 0.00 | 0.00 | 93 | 1008.0 |
| 20260505114501 | 70 | 311 | 0.0 | 7.0 | 0.00 | 0.00 | 0.00 | 93 | 1008.3 |
| 20260505113958 | 70 | 92 | 0.0 | 4.0 | 0.00 | 0.00 | 0.00 | 93 | 1008.3 |
| 20260505113454 | 70 | 255 | 3.0 | 5.0 | 0.00 | 0.00 | 0.00 | 93 | 1008.4 |
| 20260505112950 | 70 | 125 | 0.0 | 5.0 | 0.00 | 0.00 | 0.00 | 93 | 1008.1 |
| 20260505112447 | 70 | 172 | 3.0 | 4.0 | 0.00 | 0.00 | 0.00 | 93 | 1008.0 |
| 20260505111944 | 70 | 73 | 4.0 | 7.0 | 0.00 | 0.00 | 0.00 | 94 | 1008.0 |
| 20260505111438 | 70 | 335 | 2.0 | 6.0 | 0.00 | 0.00 | 0.00 | 94 | 1008.2 |
| 20260505110935 | 70 | 48 | 2.0 | 5.0 | 0.00 | 0.00 | 0.00 | 94 | 1008.0 |
| 20260505110432 | 70 | 220 | 2.0 | 5.0 | 0.00 | 0.00 | 0.00 | 93 | 1007.9 |
| 20260505101903 | 69 | 260 | 0.0 | 3.0 | 0.00 | 0.00 | 0.00 | 94 | 1008.3 |
| 20260505101357 | 69 | 59 | 2.0 | 6.0 | 0.00 | 0.00 | 0.00 | 94 | 1008.3 |
| 20260505100854 | 69 | 310 | 2.0 | 4.0 | 0.00 | 0.00 | 0.00 | 94 | 1008.3 |
| 20260505100350 | 69 | 187 | 1.0 | 3.0 | 0.00 | 0.00 | 0.00 | 94 | 1008.5 |
| 20260505095846 | 69 | 225 | 1.0 | 5.0 | 0.00 | 0.00 | 0.00 | 94 | 1008.4 |
| 20260505095344 | 69 | 165 | 0.0 | 3.0 | 0.00 | 0.00 | 0.00 | 94 | 1008.2 |
| 20260505094839 | 69 | 132 | 3.0 | 3.0 | 0.00 | 0.00 | 0.00 | 94 | 1008.3 |
| 20260505094336 | 69 | 59 | 1.0 | 4.0 | 0.00 | 0.00 | 0.00 | 94 | 1008.4 |
| 20260505093832 | 69 | 177 | 3.0 | 5.0 | 0.00 | 0.00 | 0.00 | 94 | 1008.3 |
| 20260505093330 | 69 | 321 | 2.0 | 3.0 | 0.00 | 0.00 | 0.00 | 94 | 1008.3 |
| 20260505092826 | 69 | 354 | 2.0 | 5.0 | 0.00 | 0.00 | 0.00 | 94 | 1008.5 |
| 20260505092325 | 69 | 10 | 2.0 | 9.0 | 0.00 | 0.00 | 0.00 | 94 | 1008.4 |
| 20260505091822 | 69 | 221 | 1.0 | 6.0 | 0.00 | 0.00 | 0.00 | 94 | 1008.4 |
| 20260505091320 | 69 | 266 | 1.0 | 4.0 | 0.00 | 0.00 | 0.00 | 95 | 1008.7 |
| 20260505090818 | 69 | 220 | 0.0 | 2.0 | 0.00 | 0.00 | 0.00 | 95 | 1008.8 |
| 20260505090316 | 69 | 145 | 3.0 | 4.0 | 0.00 | 0.00 | 0.00 | 95 | 1008.5 |
| 20260505085812 | 68 | 304 | 0.0 | 3.0 | 0.00 | 0.00 | 0.00 | 95 | 1008.6 |
| 20260505085310 | 68 | 16 | 2.0 | 3.0 | 0.00 | 0.00 | 0.00 | 94 | 1008.6 |
| 20260505084808 | 68 | 192 | 1.0 | 6.0 | 0.00 | 0.00 | 0.00 | 94 | 1008.9 |
| 20260505084307 | 68 | 330 | 2.0 | 3.0 | 0.00 | 0.00 | 0.00 | 94 | 1008.7 |
| 20260505083803 | 68 | 149 | 2.0 | 4.0 | 0.00 | 0.00 | 0.00 | 94 | 1008.9 |
| 20260505083300 | 69 | 287 | 3.0 | 5.0 | 0.00 | 0.00 | 0.00 | 94 | 1008.8 |
| 20260505082756 | 69 | 63 | 2.0 | 3.0 | 0.00 | 0.00 | 0.00 | 94 | 1008.8 |
| 20260505082253 | 69 | 168 | 2.0 | 3.0 | 0.00 | 0.00 | 0.00 | 94 | 1009.0 |
| 20260505081749 | 69 | 35 | 2.0 | 3.0 | 0.00 | 0.00 | 0.00 | 94 | 1009.0 |
| 20260505081246 | 69 | 322 | 3.0 | 3.0 | 0.00 | 0.00 | 0.00 | 94 | 1009.1 |
| 20260505080743 | 69 | 259 | 3.0 | 5.0 | 0.00 | 0.00 | 0.00 | 94 | 1009.1 |
| 20260505080239 | 69 | 89 | 0.0 | 3.0 | 0.00 | 0.00 | 0.00 | 94 | 1009.1 |
| 20260505075735 | 69 | 0 | 0.0 | 4.0 | 0.00 | 0.00 | 0.00 | 94 | 1009.1 |
| 20260505075232 | 69 | 117 | 1.0 | 3.0 | 0.00 | 0.00 | 0.00 | 94 | 1009.3 |
| 20260505074729 | 69 | 81 | 2.0 | 4.0 | 0.00 | 0.00 | 0.00 | 93 | 1009.2 |
| 20260505074227 | 69 | 65 | 0.0 | 3.0 | 0.00 | 0.00 | 0.00 | 93 | 1009.3 |
| 20260505073724 | 69 | 255 | 2.0 | 5.0 | 0.00 | 0.00 | 0.00 | 93 | 1009.3 |
| 20260505073222 | 69 | 357 | 0.0 | 5.0 | 0.00 | 0.00 | 0.00 | 93 | 1009.3 |
| 20260505072718 | 69 | 327 | 3.0 | 4.0 | 0.00 | 0.00 | 0.00 | 93 | 1009.7 |
| 20260505072214 | 69 | 73 | 0.0 | 6.0 | 0.00 | 0.00 | 0.00 | 93 | 1009.5 |
| 20260505071709 | 69 | 92 | 1.0 | 4.0 | 0.00 | 0.00 | 0.00 | 92 | 1009.6 |
| 20260505071207 | 69 | 251 | 2.0 | 5.0 | 0.00 | 0.00 | 0.00 | 92 | 1009.7 |
| 20260505070705 | 69 | 207 | 2.0 | 4.0 | 0.00 | 0.00 | 0.00 | 92 | 1009.7 |
| 20260505070200 | 69 | 0 | 1.0 | 3.0 | 0.00 | 0.00 | 0.00 | 92 | 1009.8 |
| 20260505065656 | 69 | 151 | 0.0 | 3.0 | 0.00 | 0.00 | 0.00 | 92 | 1009.8 |
| 20260505065154 | 69 | 158 | 4.0 | 4.0 | 0.00 | 0.00 | 0.00 | 92 | 1010.0 |
| 20260505064650 | 69 | 228 | 3.0 | 3.0 | 0.00 | 0.00 | 0.00 | 92 | 1010.3 |
| 20260505064149 | 69 | 323 | 2.0 | 2.0 | 0.00 | 0.00 | 0.00 | 92 | 1010.4 |
| 20260505063646 | 69 | 147 | 1.0 | 2.0 | 0.00 | 0.00 | 0.00 | 92 | 1010.3 |
| 20260505063142 | 69 | 195 | 0.0 | 3.0 | 0.00 | 0.00 | 0.00 | 91 | 1010.1 |
| 20260505062638 | 69 | 244 | 2.0 | 3.0 | 0.00 | 0.00 | 0.00 | 91 | 1010.1 |
| 20260505062136 | 69 | 48 | 1.0 | 4.0 | 0.00 | 0.00 | 0.00 | 91 | 1010.6 |
| 20260505061632 | 69 | 49 | 1.0 | 5.0 | 0.00 | 0.00 | 0.00 | 91 | 1010.5 |
| 20260505061131 | 69 | 306 | 3.0 | 4.0 | 0.00 | 0.00 | 0.00 | 91 | 1010.3 |
| 20260505060628 | 69 | 155 | 3.0 | 3.0 | 0.00 | 0.00 | 0.00 | 90 | 1010.6 |
| 20260505060125 | 69 | 142 | 2.0 | 6.0 | 0.00 | 0.00 | 0.00 | 90 | 1010.5 |
| 20260505055620 | 70 | 312 | 3.0 | 4.0 | 0.00 | 0.00 | 0.00 | 90 | 1010.1 |
| 20260505055117 | 70 | 83 | 1.0 | 5.0 | 0.00 | 0.00 | 0.00 | 90 | 1010.5 |